EW6866 Weather Reports


time (UTC)temp
F
wind
direction
speed
knots
gust
knots
rain 1hr
in
rain 24hr
in
rain mn
in
humidity
%
barometer
mb
20260905150004 83 96 0.0 0.9 0.00 0.23 0.00 82 1010.7
20260905144504 82 118 0.0 1.7 0.00 0.23 0.00 84 1010.6
20260905143004 81 147 0.0 4.3 0.00 0.23 0.00 87 1010.5
20260905141504 80 148 0.0 1.7 0.00 0.23 0.00 87 1010.5
20260905140025 79 182 0.0 2.6 0.00 0.23 0.00 89 1010.6
20260905134503 78 185 0.0 2.6 0.00 0.23 0.00 91 1010.4
20260905133004 77 137 0.0 0.9 0.00 0.23 0.00 92 1010.6
20260905131504 76 248 0.0 1.7 0.00 0.23 0.00 94 1010.7
20260905130004 75 147 0.0 0.9 0.00 0.23 0.00 96 1010.8
20260905124525 75 0 0.0 0.0 0.00 0.23 0.00 97 1010.8
20260905123005 74 145 0.0 0.9 0.00 0.23 0.00 98 1010.8
20260905121503 73 0 0.0 0.0 0.00 0.23 0.00 98 1010.9
20260905120004 73 0 0.0 0.0 0.00 0.23 0.00 98 1010.6
20260905114504 72 0 0.0 0.0 0.00 0.23 0.00 98 1010.5
20260905113004 72 0 0.0 0.0 0.00 0.23 0.00 98 1010.4
20260905111503 71 0 0.0 0.0 0.00 0.23 0.00 98 1010.2
20260905110025 71 0 0.0 0.0 0.00 0.23 0.00 98 1010.0
20260905104503 71 0 0.0 0.0 0.00 0.23 0.00 98 1009.8
20260905103025 71 0 0.0 0.0 0.00 0.23 0.00 98 1009.7
20260905101504 71 0 0.0 0.0 0.00 0.23 0.00 98 1009.6
20260905100025 71 0 0.0 0.0 0.00 0.23 0.00 98 1009.5
20260905094504 71 114 0.0 0.9 0.00 0.23 0.00 98 1009.5
20260905093003 71 0 0.0 0.0 0.00 0.23 0.00 98 1009.6
20260905091504 71 0 0.0 0.0 0.00 0.23 0.00 97 1009.7
20260905090003 71 129 0.0 0.9 0.00 0.23 0.00 97 1009.7
20260905084504 71 0 0.0 0.0 0.00 0.23 0.00 97 1009.4
20260905083025 71 172 0.0 0.9 0.00 0.23 0.00 97 1009.2
20260905081503 71 0 0.0 0.0 0.00 0.23 0.00 97 1009.2
20260905080004 71 124 0.0 0.9 0.00 0.23 0.00 97 1009.4
20260905074526 71 0 0.0 0.0 0.00 0.23 0.00 97 1009.5
20260905073005 71 107 0.0 0.9 0.00 0.23 0.00 97 1009.5
20260905071505 71 0 0.0 0.0 0.00 0.23 0.00 97 1009.3
20260905070005 71 0 0.0 0.0 0.00 0.23 0.00 97 1009.3
20260905064505 71 120 0.0 0.9 0.00 0.23 0.00 97 1009.5
20260905063005 71 0 0.0 0.0 0.00 0.23 0.00 97 1009.5
20260905061505 71 110 0.0 0.9 0.00 0.23 0.00 97 1009.7
20260905060005 72 124 0.0 0.9 0.00 0.23 0.00 97 1009.8
20260905054505 72 125 0.0 0.9 0.00 0.23 0.00 97 1010.1
20260905053005 72 116 0.0 1.7 0.00 0.23 0.00 97 1010.2
20260905051505 72 79 0.0 0.9 0.00 0.23 0.00 97 1010.6
20260905050005 73 171 0.0 0.9 0.00 0.23 0.00 97 1010.8
20260905044505 73 0 0.0 0.0 0.00 0.23 0.00 97 1010.7
20260905043005 73 115 0.0 0.9 0.00 0.23 0.00 97 1010.8
20260905041505 74 0 0.0 0.0 0.00 0.23 0.00 97 1011.0
20260905040006 74 123 0.0 1.7 0.00 0.23 0.00 97 1011.2
20260905034525 74 148 0.0 4.3 0.00 0.23 0.23 97 1011.1
20260905033005 74 127 0.0 0.9 0.00 0.23 0.23 97 1011.0
20260905031526 74 0 0.0 0.0 0.00 0.23 0.23 97 1010.4
20260905030005 74 0 0.0 0.0 0.01 0.23 0.23 97 1009.9
20260905024505 74 0 0.0 0.0 0.03 0.23 0.23 97 1010.5
20260905023004 73 0 0.0 0.0 0.07 0.23 0.23 96 1011.4
20260905021505 74 289 0.0 2.6 0.09 0.23 0.23 96 1011.9
20260905020004 74 298 0.0 3.5 0.09 0.22 0.22 96 1012.2
20260905014505 74 142 0.0 2.6 0.08 0.20 0.20 95 1014.1
20260905013026 74 115 0.0 6.1 0.06 0.16 0.17 95 1014.4
20260905011526 74 118 0.0 2.6 0.05 0.14 0.14 94 1014.0
20260905010005 74 108 0.9 4.3 0.06 0.13 0.13 94 1013.8
20260905004504 74 110 0.0 5.2 0.10 0.12 0.12 94 1014.0
20260905003005 75 144 0.0 0.9 0.09 0.10 0.10 92 1013.1
20260905001525 76 129 0.0 1.7 0.08 0.09 0.09 91 1012.4
20260905000005 78 123 0.9 6.1 0.05 0.06 0.06 88 1013.0
20260904234505 80 127 0.0 5.2 0.01 0.02 0.02 86 1013.2
20260904233025 81 260 0.0 0.9 0.00 0.01 0.01 87 1012.6
20260904231504 81 287 0.0 0.9 0.00 0.01 0.01 87 1011.7
20260904230005 80 272 0.0 2.6 0.00 0.01 0.01 86 1012.0
20260904224505 80 272 0.0 1.7 0.00 0.01 0.01 84 1012.2
20260904223005 80 0 0.0 0.0 0.00 0.01 0.01 83 1011.5
20260904221505 80 134 0.0 0.9 0.00 0.01 0.01 84 1011.5
20260904220004 80 241 0.0 0.9 0.00 0.01 0.01 84 1011.7
20260904214505 79 286 0.0 1.7 0.00 0.01 0.01 85 1011.6
20260904213005 79 39 0.9 6.1 0.00 0.01 0.01 87 1011.9
20260904211526 80 67 0.0 5.2 0.01 0.01 0.01 84 1011.6
20260904210004 83 57 0.9 4.3 0.01 0.01 0.01 86 1011.9
20260904204526 86 0 0.0 0.0 0.01 0.01 0.01 90 1011.6
20260904203004 90 0 0.0 0.0 0.01 0.01 0.01 82 1010.3
20260904201504 93 133 0.9 3.5 0.00 0.00 0.00 70 1010.9
20260904200005 94 184 0.9 7.0 0.00 0.00 0.00 68 1010.7
20260904194504 96 147 0.9 5.2 0.00 0.00 0.00 65 1011.1
20260904193004 98 167 0.9 6.1 0.00 0.00 0.00 63 1011.2
20260904191504 97 174 0.9 8.7 0.00 0.00 0.00 65 1011.5
20260904190004 97 198 0.9 7.8 0.00 0.00 0.00 64 1011.9
20260904184504 96 223 1.7 7.0 0.00 0.00 0.00 65 1012.0
20260904183025 96 184 0.9 5.2 0.00 0.00 0.00 65 1012.2
20260904181504 96 170 0.9 4.3 0.00 0.00 0.00 66 1012.4
20260904180004 97 201 0.9 3.5 0.00 0.00 0.00 66 1012.7
20260904174504 96 193 0.9 3.5 0.00 0.00 0.00 67 1012.7
20260904173004 95 179 0.9 6.1 0.00 0.00 0.00 68 1012.9
20260904171504 96 215 0.9 5.2 0.00 0.00 0.00 67 1013.0
20260904170004 95 208 0.9 6.1 0.00 0.00 0.00 68 1013.1
20260904164504 94 184 0.9 4.3 0.00 0.00 0.00 69 1013.2
20260904163004 94 177 1.7 5.2 0.00 0.00 0.00 70 1013.4
20260904161504 94 213 0.9 5.2 0.00 0.00 0.00 69 1013.6
20260904160004 93 171 0.9 3.5 0.00 0.00 0.00 71 1013.6
20260904154525 92 137 0.9 4.3 0.00 0.00 0.00 71 1013.7
20260904153004 91 149 1.7 5.2 0.00 0.00 0.00 73 1013.6
20260904151504 90 179 1.7 5.2 0.00 0.00 0.00 73 1013.6